Date,TemperatureHighF,TemperatureAvgF,TemperatureLowF,DewpointHighF,DewpointAvgF,DewpointLowF,HumidityHigh,HumidityAvg,HumidityLow,PressureMaxIn,PressureMinIn,WindSpeedMaxMPH,WindSpeedAvgMPH,GustSpeedMaxMPH,PrecipitationSumIn
2013-1-1,35.3,18.2,6.0,16.8,9.8,1.2,90,72,38,30.44,30.08,8,3,10,0.02
2013-1-2,35.7,16.7,3.6,20.1,7.6,-1.2,83,68,44,30.47,30.23,8,2,10,0.02
2013-1-3,44.1,31.3,18.0,14.7,10.9,8.4,70,45,24,30.23,29.99,25,5,35,0.01
2013-1-4,39.9,29.5,15.3,17.4,13.4,7.4,73,52,37,30.15,29.90,26,6,27,0.00
2013-1-5,40.3,24.7,6.9,19.5,12.2,2.8,88,62,32,30.20,29.89,9,3,21,0.00
2013-1-6,34.9,30.6,23.1,20.2,14.3,9.8,74,51,37,29.87,29.65,22,9,34,0.00
2013-1-7,37.8,25.4,9.2,18.6,12.3,3.5,80,58,42,29.80,29.45,16,3,31,0.00
2013-1-8,31.8,29.0,24.5,18.8,6.9,0.7,71,41,27,29.85,29.56,26,8,31,0.00
2013-1-9,38.7,24.4,11.9,29.8,18.5,7.5,89,78,63,29.76,29.49,20,5,24,0.00
2013-1-10,23.2,16.0,7.8,18.5,11.7,4.0,88,83,77,30.21,29.77,12,5,20,0.00
2013-1-11,14.4,1.7,-8.4,7.0,-2.8,-12.9,86,81,71,30.36,30.21,6,2,9,0.00
2013-1-12,21.3,7.9,-4.6,11.7,2.6,-8.9,88,79,55,30.42,30.28,8,3,11,0.00
2013-1-13,21.4,12.5,5.1,13.1,8.0,0.8,89,82,67,30.39,30.23,7,1,8,0.00
2013-1-14,31.0,19.7,6.4,23.6,15.4,3.4,92,84,67,30.23,29.99,5,1,9,0.00
2013-1-15,48.0,37.3,23.9,24.5,20.7,15.8,80,54,28,30.05,29.86,18,7,29,0.10
2013-1-16,47.9,37.1,19.4,26.9,20.7,14.8,92,56,27,30.13,29.85,25,5,25,0.00
2013-1-17,51.8,41.3,16.0,26.6,20.5,13.6,94,47,29,30.12,29.75,30,10,33,0.00
2013-1-18,46.9,42.4,29.8,26.3,19.6,14.8,84,41,30,29.94,29.63,27,11,35,0.00
2013-1-19,30.7,24.2,14.9,25.9,19.0,9.0,90,80,71,30.51,29.95,17,5,29,0.00
2013-1-20,15.6,10.1,3.7,8.0,5.0,0.2,86,79,70,30.61,30.43,6,2,16,0.00
2013-1-21,36.6,19.1,7.8,24.0,13.7,4.4,89,80,60,30.43,30.10,9,2,10,0.00
2013-1-22,24.3,17.8,11.7,19.0,14.1,8.0,91,85,78,30.26,30.11,9,3,10,0.00
2013-1-23,13.6,11.1,7.5,11.5,8.5,4.4,91,89,87,30.26,29.81,9,3,12,0.00
2013-1-24,41.1,27.9,7.9,25.0,16.4,4.8,93,65,36,30.08,29.80,15,5,23,0.00
2013-1-25,43.5,32.6,18.9,22.5,16.6,9.4,71,52,33,29.89,29.76,19,6,31,0.00
2013-1-26,38.8,21.2,8.1,16.9,9.5,3.4,82,63,30,29.85,29.76,14,4,20,0.00
2013-1-27,35.4,20.2,10.9,15.0,8.6,5.7,82,63,34,29.87,29.77,17,4,23,0.00
2013-1-28,33.8,15.7,2.1,15.4,6.9,-1.9,87,71,29,29.93,29.73,18,4,26,0.00
2013-1-29,16.3,-0.3,-7.5,13.1,-6.0,-12.5,87,76,68,30.36,29.94,18,3,20,0.00
2013-1-30,22.3,12.4,-0.7,18.0,7.4,-4.9,89,80,70,30.28,30.07,15,4,25,0.00
2013-1-31,35.2,15.5,7.7,22.3,10.6,4.6,87,81,58,30.25,30.07,9,2,11,0.00
2013-2-1,46.2,33.2,19.6,23.1,17.9,14.0,83,56,28,30.10,29.97,22,6,29,0.00
2013-2-2,49.7,33.9,18.9,25.0,18.2,14.4,86,57,27,30.23,29.93,21,5,29,0.00
2013-2-3,46.8,38.2,25.9,20.7,18.5,15.2,69,46,28,29.93,29.70,21,6,25,0.00
2013-2-4,42.3,33.8,21.2,22.0,19.2,16.6,83,56,40,29.85,29.62,16,5,25,0.00
2013-2-5,46.9,27.8,14.7,25.0,16.7,11.7,89,67,32,29.85,29.56,13,4,27,0.00
2013-2-6,42.3,32.4,22.4,24.6,16.0,12.1,76,53,30,29.88,29.66,19,7,34,0.00
2013-2-7,39.0,29.0,20.0,18.5,15.4,12.9,75,57,38,29.91,29.81,7,2,10,0.00
2013-2-8,40.5,25.2,10.8,18.4,11.6,6.8,86,60,30,29.99,29.92,14,4,18,0.00
2013-2-9,35.9,29.3,23.8,27.2,18.9,14.1,89,65,54,30.14,29.87,25,5,34,0.00
2013-2-10,39.4,24.3,11.9,22.4,16.4,8.8,89,73,37,30.24,29.99,11,3,15,0.00
2013-2-11,46.4,29.3,13.1,21.0,14.3,8.1,80,56,31,29.99,29.86,17,4,23,0.00
2013-2-12,45.3,34.1,22.8,21.1,17.8,13.7,74,52,36,29.93,29.66,21,6,32,0.00
2013-2-13,40.8,33.1,20.1,21.9,15.6,3.7,68,49,21,30.22,29.68,23,7,35,0.00
2013-2-14,36.7,19.9,6.8,12.8,7.4,2.4,83,61,30,30.43,30.23,7,2,12,0.00
2013-2-15,50.2,34.4,12.2,25.0,18.0,5.0,79,53,36,30.39,30.00,25,8,32,0.00
2013-2-16,51.1,39.1,31.6,29.7,22.6,19.9,90,53,34,30.00,29.55,18,6,29,0.00
2013-2-17,30.8,26.9,12.3,28.8,22.0,9.4,94,82,60,30.08,29.66,15,5,23,0.00
2013-2-18,24.5,18.2,9.9,22.0,15.8,7.1,92,90,86,30.11,29.89,12,4,16,0.00
2013-2-19,33.8,23.3,15.6,21.6,19.0,13.2,93,84,56,29.89,29.79,8,2,10,0.02
2013-2-20,30.0,20.0,9.0,23.1,17.0,6.2,93,88,74,29.91,29.82,8,2,11,0.01
2013-2-21,35.2,18.9,1.1,19.8,6.6,-2.3,91,63,33,29.94,29.83,17,4,26,0.01
2013-2-22,42.5,26.8,8.8,16.5,11.3,3.4,81,54,32,29.83,29.33,26,7,32,0.00
2013-2-23,39.8,30.2,16.9,18.5,11.8,6.0,69,47,26,29.96,29.37,15,4,23,0.00
2013-2-24,42.8,28.5,12.2,16.9,11.9,5.2,75,52,32,29.98,29.80,21,6,27,0.00
2013-2-25,38.4,31.7,23.0,23.8,18.3,14.1,90,60,38,29.91,29.56,18,6,33,0.00
2013-2-26,33.1,23.7,17.7,25.4,20.4,15.5,93,87,72,30.14,29.92,9,3,13,0.02
2013-2-27,40.7,27.3,18.1,20.6,13.5,8.9,92,61,29,30.15,30.08,17,5,27,0.00
2013-2-28,42.6,31.2,14.6,18.4,12.4,8.0,79,49,26,30.18,29.99,22,6,23,0.00
2013-3-1,53.2,41.2,27.2,31.1,24.9,19.0,85,54,35,29.98,29.85,26,7,31,0.00
2013-3-2,41.1,29.2,21.3,31.9,25.4,19.3,94,86,67,29.96,29.69,14,3,19,0.00
2013-3-3,25.5,23.8,22.0,22.6,21.1,18.7,93,89,81,30.32,29.67,16,7,21,0.00
2013-3-4,26.0,20.6,16.3,19.1,16.7,13.9,91,85,72,30.39,30.30,7,2,13,0.02
2013-3-5,24.3,15.2,7.8,16.9,12.1,5.0,91,88,73,30.31,30.11,6,2,9,0.00
2013-3-6,27.6,14.4,0.7,20.1,10.9,-2.7,92,86,73,30.11,29.94,7,2,11,0.00
2013-3-7,24.8,18.2,13.4,18.9,14.3,10.8,91,85,74,30.14,30.03,6,2,10,0.04
2013-3-8,40.3,22.3,4.4,23.1,13.5,1.4,91,72,38,30.13,29.97,15,4,21,0.02
2013-3-9,42.1,26.2,7.7,23.8,16.2,4.6,90,68,35,30.23,30.07,8,3,13,0.00
2013-3-10,46.2,38.8,31.7,21.7,16.8,12.3,66,41,26,30.18,29.86,27,7,36,0.00
2013-3-11,33.6,27.0,19.5,23.9,14.9,8.4,85,62,39,30.23,29.97,10,3,16,0.00
2013-3-12,46.4,31.1,15.8,24.4,18.4,11.6,86,62,37,30.21,29.80,21,5,26,0.00
2013-3-13,54.2,45.2,28.7,32.0,26.6,21.1,75,50,29,29.80,29.69,24,8,38,0.00
2013-3-14,43.7,18.6,9.2,26.3,13.7,5.9,90,82,50,30.10,29.82,9,4,20,0.00
2013-3-15,26.7,15.9,8.1,18.3,11.1,5.3,89,81,69,30.27,30.04,16,4,16,0.00
2013-3-16,20.9,16.5,12.7,18.2,14.1,10.2,93,90,87,30.22,29.73,10,4,14,0.00
2013-3-17,19.6,12.6,3.3,13.9,7.9,0.1,89,81,73,30.01,29.74,10,4,16,0.00
2013-3-18,27.8,11.5,-1.3,19.4,6.5,-4.9,90,80,65,30.19,29.91,15,4,19,0.00
2013-3-19,37.8,21.5,-1.3,16.8,6.3,-5.2,87,57,26,30.31,29.95,18,6,22,0.00
2013-3-20,53.4,32.9,16.1,25.9,19.5,11.0,80,61,32,29.94,29.26,25,5,34,0.01
2013-3-21,38.0,31.0,19.8,27.8,21.6,13.1,86,68,45,29.93,29.28,20,7,31,0.00
2013-3-22,27.6,21.4,13.5,16.4,11.2,5.8,85,66,39,30.31,29.93,17,5,21,0.00
2013-3-23,29.2,15.4,-0.3,11.5,5.1,-4.2,86,66,42,30.45,30.32,8,3,13,0.00
2013-3-24,37.3,19.3,-0.4,19.5,6.0,-4.3,86,61,26,30.46,30.24,12,4,18,0.00
2013-3-25,43.9,25.3,7.8,19.5,10.6,3.2,84,58,23,30.25,30.05,12,2,16,0.00
2013-3-26,49.2,30.7,12.9,23.6,14.3,8.2,85,56,24,30.05,29.93,9,3,17,0.00
2013-3-27,51.5,35.6,19.1,26.8,20.7,15.2,85,59,25,30.01,29.93,10,3,16,0.00
2013-3-28,53.4,37.7,20.4,29.3,22.5,17.4,88,59,26,30.03,29.93,14,4,18,0.00
2013-3-29,54.0,37.7,23.7,22.8,19.7,16.5,81,54,23,30.09,29.99,18,5,25,0.00
2013-3-30,55.9,39.2,23.6,31.0,21.9,18.0,80,55,23,30.17,29.97,17,6,24,0.00
2013-3-31,50.8,39.7,27.5,29.9,26.7,22.1,82,61,40,30.12,30.00,15,4,24,0.00
2013-4-1,52.9,37.2,20.4,31.3,26.5,17.7,90,68,42,30.14,29.98,13,4,19,0.00
2013-4-2,60.4,44.5,28.3,29.8,25.9,23.0,85,55,24,29.97,29.74,21,6,26,0.00
2013-4-3,48.4,34.5,29.6,31.6,28.1,24.5,92,78,42,30.13,29.77,10,4,22,0.02
2013-4-4,37.3,31.8,27.6,33.8,29.6,26.1,95,92,86,30.13,29.63,15,4,16,0.03
2013-4-5,45.2,36.2,28.5,35.0,31.3,26.3,94,83,62,29.75,29.58,12,4,15,0.00
2013-4-6,28.5,27.6,26.4,27.5,26.5,25.2,96,96,93,29.76,29.72,9,3,12,0.00
2013-4-7,28.6,25.0,20.2,27.6,22.9,18.2,96,92,85,30.11,29.76,11,2,13,0.00
2013-4-8,21.9,18.2,12.3,18.2,14.7,9.9,92,86,78,30.45,30.11,8,2,11,0.07
2013-4-9,40.9,22.3,6.7,28.1,16.5,3.9,91,79,57,30.50,30.07,13,3,19,0.03
2013-4-10,52.7,38.5,28.9,32.6,28.7,23.4,91,69,42,30.07,29.51,23,6,32,0.02
2013-4-11,35.7,31.0,27.9,32.5,28.5,25.9,94,91,76,30.08,29.74,15,4,26,0.04
2013-4-12,40.1,28.3,12.8,29.2,22.6,9.7,92,80,59,30.12,29.52,12,4,20,0.02
2013-4-13,34.4,29.1,24.3,28.1,25.2,21.8,90,85,75,29.89,29.39,20,8,27,0.00
2013-4-14,26.5,23.8,20.2,22.0,19.6,16.1,91,84,66,30.21,29.90,11,4,17,0.05
2013-4-15,27.0,22.5,16.9,20.9,17.6,14.5,91,82,64,30.43,30.20,7,2,14,0.04
2013-4-16,32.6,24.6,14.6,22.6,17.7,12.5,92,76,54,30.51,30.42,11,4,18,0.01
2013-4-17,44.7,25.5,4.2,20.1,11.9,0.7,90,62,28,30.47,30.15,13,4,19,0.00
2013-4-18,48.2,37.0,25.6,33.3,27.1,19.7,81,68,51,30.15,29.95,12,4,19,0.00
2013-4-19,52.3,40.2,29.8,36.6,30.8,26.2,91,71,37,29.95,29.63,19,4,22,0.01
2013-4-20,37.9,29.9,22.6,32.8,25.8,16.2,91,85,74,30.21,29.68,19,6,28,0.01
2013-4-21,27.2,21.7,15.5,19.9,15.3,11.5,88,76,64,30.45,30.21,12,3,20,0.05
2013-4-22,46.7,27.8,5.5,18.7,9.8,2.2,89,54,16,30.55,30.27,13,4,21,0.00
2013-4-23,43.6,33.7,20.7,30.1,17.8,11.1,77,53,34,30.30,30.14,19,4,25,0.01
2013-4-24,52.1,39.5,21.2,21.6,17.7,10.7,80,46,20,30.23,29.78,18,6,28,0.00
2013-4-25,57.9,49.0,35.2,26.4,23.6,19.8,57,38,23,29.78,29.60,26,10,35,0.00
2013-4-26,63.2,54.8,43.0,30.0,27.6,24.1,54,36,24,29.77,29.67,33,9,42,0.00
2013-4-27,55.4,50.6,41.7,34.8,27.2,24.3,70,41,31,29.68,29.45,28,12,46,0.00
2013-4-28,56.1,43.6,33.1,32.5,24.4,11.6,91,54,18,29.83,29.49,24,6,35,0.00
2013-4-29,42.0,34.8,27.3,28.5,23.2,16.3,91,65,38,29.82,29.30,24,8,29,0.00
2013-4-30,33.0,26.4,18.9,25.8,20.5,13.8,93,79,54,30.32,29.82,9,3,20,0.08
2013-5-1,47.5,32.1,13.5,24.9,17.1,10.9,91,59,30,30.49,30.33,20,6,25,0.02
2013-5-2,60.1,47.1,28.8,31.1,22.9,19.1,69,41,26,30.45,30.13,25,9,29,0.00
2013-5-3,58.1,47.6,38.3,39.1,32.6,27.0,94,60,32,30.30,30.15,17,5,20,0.05
2013-5-4,66.2,50.5,31.6,34.3,27.0,18.3,85,46,17,30.33,30.05,13,4,18,0.00
2013-5-5,74.9,53.9,30.2,35.6,31.2,25.7,85,48,20,30.07,29.81,11,3,16,0.00
2013-5-6,80.6,59.1,34.0,39.4,29.0,16.1,85,42,9,29.86,29.58,12,5,20,0.00
2013-5-7,59.9,52.2,41.9,35.0,30.3,25.8,65,44,31,30.01,29.61,19,6,25,0.00
2013-5-8,68.0,49.3,28.9,37.5,32.1,24.4,85,55,31,30.04,29.97,12,4,16,0.00
2013-5-9,75.1,58.1,32.8,37.7,26.3,15.7,85,39,11,30.05,29.87,17,6,29,0.00
2013-5-10,61.2,50.9,34.6,32.8,30.8,28.8,80,48,32,30.26,30.05,19,6,30,0.00
2013-5-11,76.3,57.0,32.6,38.6,28.6,22.2,81,42,14,30.20,29.82,22,6,26,0.00
2013-5-12,75.8,61.2,49.6,44.7,37.0,30.7,67,42,26,29.82,29.50,30,8,42,0.00
2013-5-13,63.5,57.2,44.1,39.8,32.8,29.9,68,40,29,29.60,29.42,28,9,35,0.00
2013-5-14,58.3,49.5,35.9,38.3,33.0,27.8,86,54,31,29.86,29.50,24,5,28,0.00
2013-5-15,61.6,46.9,30.3,33.0,27.3,22.1,91,53,25,29.95,29.79,15,5,25,0.00
2013-5-16,56.3,42.9,30.2,41.4,33.7,25.2,93,71,43,29.89,29.79,16,5,21,0.04
2013-5-17,60.1,45.2,29.5,43.6,34.7,28.2,96,71,39,29.92,29.83,8,4,15,0.08
2013-5-18,64.6,49.0,29.8,40.2,33.7,27.8,92,61,26,29.90,29.80,13,4,19,0.00
2013-5-19,57.4,46.0,35.4,43.8,39.3,31.6,91,78,56,30.15,29.90,16,5,22,0.04
2013-5-20,65.3,49.0,30.9,46.3,38.1,29.4,95,70,38,30.22,29.95,17,4,28,0.02
2013-5-21,68.2,54.1,35.0,45.5,34.7,21.9,92,55,19,29.95,29.72,28,8,34,0.00
2013-5-22,52.6,44.0,35.5,43.0,34.0,23.6,93,71,33,30.00,29.81,12,4,18,0.25
2013-5-23,43.4,40.6,36.5,41.2,39.1,35.2,96,94,88,29.99,29.88,10,4,13,0.79
2013-5-24,41.1,39.6,37.9,40.0,38.3,36.2,97,95,92,29.88,29.69,14,6,16,1.48
2013-5-25,54.5,44.9,37.7,41.0,37.0,34.0,95,76,46,29.85,29.67,12,4,20,0.13
2013-5-26,62.0,48.6,32.0,37.1,31.9,27.3,93,58,28,29.90,29.80,12,5,22,0.00
2013-5-27,62.3,50.2,32.6,44.8,38.0,30.1,91,66,36,29.82,29.64,16,4,22,0.00
2013-5-28,62.3,50.0,39.5,48.0,42.4,37.2,93,77,47,29.66,29.58,9,3,18,0.06
2013-5-29,58.3,47.1,36.7,47.2,42.5,35.1,95,85,61,29.67,29.57,9,2,14,0.04
2013-5-30,50.9,45.9,41.0,47.6,43.7,39.6,96,92,81,29.91,29.66,8,2,9,0.33
2013-5-31,57.0,48.3,43.3,48.0,45.0,42.2,96,89,67,30.15,29.91,12,3,23,0.21
2013-6-1,58.6,48.7,33.0,44.5,36.3,29.5,97,67,33,30.15,29.93,12,2,18,0.01
2013-6-2,51.7,44.4,40.6,99.9,41.7,37.0,96,87,71,29.93,29.86,11,4,19,0.55
2013-6-3,53.0,46.2,42.6,46.2,43.1,40.6,96,89,64,30.09,29.88,10,4,20,0.39
2013-6-4,64.6,51.8,36.6,48.3,42.7,35.6,97,74,47,30.10,29.95,13,3,18,0.06
2013-6-5,70.0,53.1,36.2,46.2,39.5,34.2,93,66,30,29.96,29.71,15,4,24,0.01
2013-6-6,70.3,54.6,34.7,48.3,41.7,33.2,95,66,29,29.96,29.74,17,4,20,0.00
2013-6-7,70.3,56.9,45.4,46.3,42.5,35.5,84,61,30,29.74,29.46,20,5,31,0.00
2013-6-8,63.0,51.2,39.6,46.0,40.5,37.2,91,70,41,29.83,29.69,12,4,20,0.00
2013-6-9,51.6,46.2,38.6,45.4,42.6,37.0,95,87,74,29.83,29.71,20,4,28,0.34
2013-6-10,51.9,37.7,31.3,41.8,34.9,30.3,96,90,64,29.86,29.83,8,3,9,0.01
2013-12-23,32.1,18.5,4.8,28.1,15.2,1.3,93,86,84,30.19,30.05,22,10,22,0.00
2013-12-24,34.4,28.1,23.5,26.9,23.4,20.4,88,82,72,30.34,30.09,20,11,25,0.00
2013-12-25,36.7,29.0,25.3,28.5,23.2,21.4,88,79,67,30.36,30.00,19,6,28,0.00
2013-12-26,40.6,34.5,27.9,33.8,27.7,21.9,82,76,65,30.12,29.87,19,8,28,0.00
2013-12-27,43.7,39.1,28.0,34.3,31.7,24.9,88,75,61,30.00,29.68,21,7,24,0.00
2013-12-28,28.0,0.8,-6.6,20.9,-3.2,-10.4,88,83,81,30.72,29.72,19,8,33,0.00
2013-12-29,20.2,5.9,-10.5,17.6,2.5,-14.7,91,86,81,30.71,30.10,25,5,29,0.00
2013-12-30,10.3,1.3,-4.0,7.2,-2.5,-7.8,87,83,82,30.49,30.22,19,7,25,0.00
2013-12-31,9.3,0.4,-3.8,6.2,-3.3,-7.9,87,84,81,30.44,30.30,21,6,26,0.00
2014-1-1,32.0,1.5,-11.2,32.0,-1.9,-15.4,88,84,81,30.65,30.44,17,3,22,0.00
2014-1-2,34.5,19.3,5.4,29.0,16.0,2.4,90,87,79,30.51,29.63,13,6,22,0.00